Timestamp (UTC),Height (m)
2024-04-28T10:30:00Z,7.39
2024-04-28T10:45:00Z,7.39
2024-04-28T11:00:00Z,7.39
2024-04-28T11:15:00Z,7.39
2024-04-28T11:30:00Z,7.40
2024-04-28T11:45:00Z,7.40
2024-04-28T12:00:00Z,7.40
2024-04-28T12:15:00Z,7.41
2024-04-28T12:30:00Z,7.41
2024-04-28T12:45:00Z,7.41
2024-04-28T13:00:00Z,7.35
2024-04-28T13:15:00Z,7.29
2024-04-28T13:30:00Z,7.29
2024-04-28T13:45:00Z,7.31
2024-04-28T14:00:00Z,7.32
2024-04-28T14:15:00Z,7.33
2024-04-28T14:30:00Z,7.33
2024-04-28T14:45:00Z,7.34
2024-04-28T15:00:00Z,7.34
2024-04-28T15:15:00Z,7.35
2024-04-28T15:30:00Z,7.35
2024-04-28T15:45:00Z,7.36
2024-04-28T16:00:00Z,7.36
2024-04-28T16:15:00Z,7.36
2024-04-28T16:30:00Z,7.37
2024-04-28T16:45:00Z,7.37
2024-04-28T17:00:00Z,7.37
2024-04-28T17:15:00Z,7.38
2024-04-28T17:30:00Z,7.38
2024-04-28T17:45:00Z,7.38
2024-04-28T18:00:00Z,7.39
2024-04-28T18:15:00Z,7.39
2024-04-28T18:30:00Z,7.39
2024-04-28T18:45:00Z,7.40
2024-04-28T19:00:00Z,7.40
2024-04-28T19:15:00Z,7.40
2024-04-28T19:30:00Z,7.41
2024-04-28T19:45:00Z,7.41
2024-04-28T20:00:00Z,7.42
2024-04-28T20:15:00Z,7.35
2024-04-28T20:30:00Z,7.29
2024-04-28T20:45:00Z,7.29
2024-04-28T21:00:00Z,7.31
2024-04-28T21:15:00Z,7.32
2024-04-28T21:30:00Z,7.33
2024-04-28T21:45:00Z,7.33
2024-04-28T22:00:00Z,7.34
2024-04-28T22:15:00Z,7.34
2024-04-28T22:30:00Z,7.35
2024-04-28T22:45:00Z,7.35
2024-04-28T23:00:00Z,7.36
2024-04-28T23:15:00Z,7.36
2024-04-28T23:30:00Z,7.36
2024-04-28T23:45:00Z,7.37
2024-04-29T00:00:00Z,7.37
2024-04-29T00:15:00Z,7.37
2024-04-29T00:30:00Z,7.38
2024-04-29T00:45:00Z,7.38
2024-04-29T01:00:00Z,7.38
2024-04-29T01:15:00Z,7.39
2024-04-29T01:30:00Z,7.39
2024-04-29T01:45:00Z,7.39
2024-04-29T02:00:00Z,7.40
2024-04-29T02:15:00Z,7.40
2024-04-29T02:30:00Z,7.40
2024-04-29T02:45:00Z,7.41
2024-04-29T03:00:00Z,7.41
2024-04-29T03:15:00Z,7.41
2024-04-29T03:30:00Z,7.36
2024-04-29T03:45:00Z,7.31
2024-04-29T04:00:00Z,7.30
2024-04-29T04:15:00Z,7.30
2024-04-29T04:30:00Z,7.32
2024-04-29T04:45:00Z,7.32
2024-04-29T05:00:00Z,7.33
2024-04-29T05:15:00Z,7.34
2024-04-29T05:30:00Z,7.34
2024-04-29T05:45:00Z,7.35
2024-04-29T06:00:00Z,7.35
2024-04-29T06:15:00Z,7.35
2024-04-29T06:30:00Z,7.36
2024-04-29T06:45:00Z,7.36
2024-04-29T07:00:00Z,7.37
2024-04-29T07:15:00Z,7.37
2024-04-29T07:30:00Z,7.37
2024-04-29T07:45:00Z,7.38
2024-04-29T08:00:00Z,7.38
2024-04-29T08:15:00Z,7.38
2024-04-29T08:30:00Z,7.38
2024-04-29T08:45:00Z,7.39
2024-04-29T09:00:00Z,7.39
2024-04-29T09:15:00Z,7.39
2024-04-29T09:30:00Z,7.40
2024-04-29T09:45:00Z,7.40
2024-04-29T10:00:00Z,7.40
2024-04-29T10:15:00Z,7.41
2024-04-29T10:30:00Z,7.41
2024-04-29T10:45:00Z,7.41
2024-04-29T11:00:00Z,7.36
2024-04-29T11:15:00Z,7.31
2024-04-29T11:30:00Z,7.32
2024-04-29T11:45:00Z,7.30
2024-04-29T12:00:00Z,7.32
2024-04-29T12:15:00Z,7.32
2024-04-29T12:30:00Z,7.33
2024-04-29T12:45:00Z,7.33
2024-04-29T13:00:00Z,7.34
2024-04-29T13:15:00Z,7.34
2024-04-29T13:30:00Z,7.35
2024-04-29T13:45:00Z,7.35
2024-04-29T14:00:00Z,7.35
2024-04-29T14:15:00Z,7.36
2024-04-29T14:30:00Z,7.36
2024-04-29T14:45:00Z,7.36
2024-04-29T15:00:00Z,7.37
2024-04-29T15:15:00Z,7.37
2024-04-29T15:30:00Z,7.37
2024-04-29T15:45:00Z,7.37
2024-04-29T16:00:00Z,7.38
2024-04-29T16:15:00Z,7.38
2024-04-29T16:30:00Z,7.38
2024-04-29T16:45:00Z,7.39
2024-04-29T17:00:00Z,7.39
2024-04-29T17:15:00Z,7.39
2024-04-29T17:30:00Z,7.39
2024-04-29T17:45:00Z,7.40
2024-04-29T18:00:00Z,7.40
2024-04-29T18:15:00Z,7.40
2024-04-29T18:30:00Z,7.41
2024-04-29T18:45:00Z,7.41
2024-04-29T19:00:00Z,7.41
2024-04-29T19:15:00Z,7.42
2024-04-29T19:30:00Z,7.36
2024-04-29T19:45:00Z,7.30
2024-04-29T20:00:00Z,7.30
2024-04-29T20:15:00Z,7.31
2024-04-29T20:30:00Z,7.32
2024-04-29T20:45:00Z,7.33
2024-04-29T21:00:00Z,7.33
2024-04-29T21:15:00Z,7.34
2024-04-29T21:30:00Z,7.34
2024-04-29T21:45:00Z,7.35
2024-04-29T22:00:00Z,7.35
2024-04-29T22:15:00Z,7.35
2024-04-29T22:30:00Z,7.36
2024-04-29T22:45:00Z,7.36
2024-04-29T23:00:00Z,7.36
2024-04-29T23:15:00Z,7.37
2024-04-29T23:30:00Z,7.37
2024-04-29T23:45:00Z,7.37
2024-04-30T00:00:00Z,7.37
2024-04-30T00:15:00Z,7.38
2024-04-30T00:30:00Z,7.38
2024-04-30T00:45:00Z,7.38
2024-04-30T01:00:00Z,7.39
2024-04-30T01:15:00Z,7.39
2024-04-30T01:30:00Z,7.39
2024-04-30T01:45:00Z,7.39
2024-04-30T02:00:00Z,7.40
2024-04-30T02:15:00Z,7.40
2024-04-30T02:30:00Z,7.40
2024-04-30T02:45:00Z,7.40
2024-04-30T03:00:00Z,7.41
2024-04-30T03:15:00Z,7.41
2024-04-30T03:30:00Z,7.42
2024-04-30T03:45:00Z,7.41
2024-04-30T04:00:00Z,7.34
2024-04-30T04:15:00Z,7.28
2024-04-30T04:30:00Z,7.29
2024-04-30T04:45:00Z,7.31
2024-04-30T05:00:00Z,7.32
2024-04-30T05:15:00Z,7.33
2024-04-30T05:30:00Z,7.33
2024-04-30T05:45:00Z,7.34
2024-04-30T06:00:00Z,7.34
2024-04-30T06:15:00Z,7.35
2024-04-30T06:30:00Z,7.35
2024-04-30T06:45:00Z,7.35
2024-04-30T07:00:00Z,7.36
2024-04-30T07:15:00Z,7.36
2024-04-30T07:30:00Z,7.36
2024-04-30T07:45:00Z,7.37
2024-04-30T08:00:00Z,7.37
2024-04-30T08:15:00Z,7.37
2024-04-30T08:30:00Z,7.38
2024-04-30T08:45:00Z,7.38
2024-04-30T09:00:00Z,7.38
2024-04-30T09:15:00Z,7.39
2024-04-30T09:30:00Z,7.39
2024-04-30T09:45:00Z,7.39
2024-04-30T10:00:00Z,7.39
2024-04-30T10:15:00Z,7.39
2024-04-30T10:30:00Z,7.40
2024-04-30T10:45:00Z,7.40
2024-04-30T11:00:00Z,7.40
2024-04-30T11:15:00Z,7.41
2024-04-30T11:30:00Z,7.41
2024-04-30T11:45:00Z,7.41
2024-04-30T12:00:00Z,7.42
2024-04-30T12:15:00Z,7.42
2024-04-30T12:30:00Z,7.37
2024-04-30T12:45:00Z,7.32
2024-04-30T13:00:00Z,7.31
2024-04-30T13:15:00Z,7.30
2024-04-30T13:30:00Z,7.32
2024-04-30T13:45:00Z,7.32
2024-04-30T14:00:00Z,7.33
2024-04-30T14:15:00Z,7.33
2024-04-30T14:30:00Z,7.34
2024-04-30T14:45:00Z,7.34
2024-04-30T15:00:00Z,7.34
2024-04-30T15:15:00Z,7.35
2024-04-30T15:30:00Z,7.35
2024-04-30T15:45:00Z,7.35
2024-04-30T16:00:00Z,7.35
2024-04-30T16:15:00Z,7.36
2024-04-30T16:30:00Z,7.36
2024-04-30T16:45:00Z,7.36
2024-04-30T17:00:00Z,7.37
2024-04-30T17:15:00Z,7.37
2024-04-30T17:30:00Z,7.37
2024-04-30T17:45:00Z,7.38
2024-04-30T18:00:00Z,7.38
2024-04-30T18:15:00Z,7.38
2024-04-30T18:30:00Z,7.38
2024-04-30T18:45:00Z,7.39
2024-04-30T19:00:00Z,7.39
2024-04-30T19:15:00Z,7.39
2024-04-30T19:30:00Z,7.39
2024-04-30T19:45:00Z,7.40
2024-04-30T20:00:00Z,7.40
2024-04-30T20:15:00Z,7.40
2024-04-30T20:30:00Z,7.41
2024-04-30T20:45:00Z,7.41
2024-04-30T21:00:00Z,7.41
2024-04-30T21:15:00Z,7.42
2024-04-30T21:30:00Z,7.35
2024-04-30T21:45:00Z,7.29
2024-04-30T22:00:00Z,7.29
2024-04-30T22:15:00Z,7.31
2024-04-30T22:30:00Z,7.32
2024-04-30T22:45:00Z,7.33
2024-04-30T23:00:00Z,7.34
2024-04-30T23:15:00Z,7.34
2024-04-30T23:30:00Z,7.34
2024-04-30T23:45:00Z,7.35
2024-05-01T00:00:00Z,7.35
2024-05-01T00:15:00Z,7.36
2024-05-01T00:30:00Z,7.36
2024-05-01T00:45:00Z,7.36
2024-05-01T01:00:00Z,7.37
2024-05-01T01:15:00Z,7.37
2024-05-01T01:30:00Z,7.37
2024-05-01T01:45:00Z,7.37
2024-05-01T02:00:00Z,7.38
2024-05-01T02:15:00Z,7.38
2024-05-01T02:30:00Z,7.38
2024-05-01T02:45:00Z,7.38
2024-05-01T03:00:00Z,7.39
2024-05-01T03:15:00Z,7.39
2024-05-01T03:30:00Z,7.39
2024-05-01T03:45:00Z,7.40
2024-05-01T04:00:00Z,7.40
2024-05-01T04:15:00Z,7.40
2024-05-01T04:30:00Z,7.40
2024-05-01T04:45:00Z,7.41
2024-05-01T05:00:00Z,7.41
2024-05-01T05:15:00Z,7.41
2024-05-01T05:30:00Z,7.42
2024-05-01T05:45:00Z,7.36
2024-05-01T06:00:00Z,7.30
2024-05-01T06:15:00Z,7.30
2024-05-01T06:30:00Z,7.31
2024-05-01T06:45:00Z,7.32
2024-05-01T07:00:00Z,7.33
2024-05-01T07:15:00Z,7.33
2024-05-01T07:30:00Z,7.34
2024-05-01T07:45:00Z,7.34
2024-05-01T08:00:00Z,7.34
2024-05-01T08:15:00Z,7.35
2024-05-01T08:30:00Z,7.35
2024-05-01T08:45:00Z,7.36
2024-05-01T09:00:00Z,7.36
2024-05-01T09:15:00Z,7.36
2024-05-01T09:30:00Z,7.37
2024-05-01T09:45:00Z,7.37
2024-05-01T10:00:00Z,7.37
2024-05-01T10:15:00Z,7.37
2024-05-01T10:30:00Z,7.38
2024-05-01T10:45:00Z,7.38
2024-05-01T11:00:00Z,7.38
2024-05-01T11:15:00Z,7.39
2024-05-01T11:30:00Z,7.39
2024-05-01T11:45:00Z,7.39
2024-05-01T12:00:00Z,7.39
2024-05-01T12:15:00Z,7.40
2024-05-01T12:30:00Z,7.40
2024-05-01T12:45:00Z,7.40
2024-05-01T13:00:00Z,7.40
2024-05-01T13:15:00Z,7.41
2024-05-01T13:30:00Z,7.41
2024-05-01T13:45:00Z,7.41
2024-05-01T14:00:00Z,7.41
2024-05-01T14:15:00Z,7.41
2024-05-01T14:30:00Z,7.38
2024-05-01T14:45:00Z,7.33
2024-05-01T15:00:00Z,7.28
2024-05-01T15:15:00Z,7.29
2024-05-01T15:30:00Z,7.31
2024-05-01T15:45:00Z,7.32
2024-05-01T16:00:00Z,7.33
2024-05-01T16:15:00Z,7.33
2024-05-01T16:30:00Z,7.34
2024-05-01T16:45:00Z,7.34
2024-05-01T17:00:00Z,7.34
2024-05-01T17:15:00Z,7.35
2024-05-01T17:30:00Z,7.35
2024-05-01T17:45:00Z,7.36
2024-05-01T18:00:00Z,7.36
2024-05-01T18:15:00Z,7.36
2024-05-01T18:30:00Z,7.37
2024-05-01T18:45:00Z,7.37
2024-05-01T19:00:00Z,7.37
2024-05-01T19:15:00Z,7.37
2024-05-01T19:30:00Z,7.38
2024-05-01T19:45:00Z,7.38
2024-05-01T20:00:00Z,7.38
2024-05-01T20:15:00Z,7.39
2024-05-01T20:30:00Z,7.39
2024-05-01T20:45:00Z,7.39
2024-05-01T21:00:00Z,7.40
2024-05-01T21:15:00Z,7.40
2024-05-01T21:30:00Z,7.41
2024-05-01T21:45:00Z,7.41
2024-05-01T22:00:00Z,7.42
2024-05-01T22:15:00Z,7.36
2024-05-01T22:30:00Z,7.30
2024-05-01T22:45:00Z,7.30
2024-05-01T23:00:00Z,7.31
2024-05-01T23:15:00Z,7.32
2024-05-01T23:30:00Z,7.33
2024-05-01T23:45:00Z,7.34
2024-05-02T00:00:00Z,7.35
2024-05-02T00:15:00Z,7.36
2024-05-02T00:30:00Z,7.37
2024-05-02T00:45:00Z,7.38
2024-05-02T01:00:00Z,7.38
2024-05-02T01:15:00Z,7.39
2024-05-02T01:30:00Z,7.40
2024-05-02T01:45:00Z,7.41
2024-05-02T02:00:00Z,7.37
2024-05-02T02:15:00Z,7.33
2024-05-02T02:30:00Z,7.29
2024-05-02T02:45:00Z,7.30
2024-05-02T03:00:00Z,7.33
2024-05-02T03:15:00Z,7.34
2024-05-02T03:30:00Z,7.36
2024-05-02T03:45:00Z,7.38
2024-05-02T04:00:00Z,7.40
2024-05-02T04:15:00Z,7.37
2024-05-02T04:30:00Z,7.35
2024-05-02T04:45:00Z,7.32
2024-05-02T05:00:00Z,7.31
2024-05-02T05:15:00Z,7.30
2024-05-02T05:30:00Z,7.30
2024-05-02T05:45:00Z,7.30
2024-05-02T06:00:00Z,7.31
2024-05-02T06:15:00Z,7.32
2024-05-02T06:30:00Z,7.34
2024-05-02T06:45:00Z,7.35
2024-05-02T07:00:00Z,7.36
2024-05-02T07:15:00Z,7.38
2024-05-02T07:30:00Z,7.39
2024-05-02T07:45:00Z,7.40
2024-05-02T08:00:00Z,7.41
2024-05-02T08:15:00Z,7.42
2024-05-02T08:30:00Z,7.43
2024-05-02T08:45:00Z,7.44
2024-05-02T09:00:00Z,7.45
2024-05-02T09:15:00Z,7.46
2024-05-02T09:30:00Z,7.47
2024-05-02T09:45:00Z,7.53
2024-05-02T10:00:00Z,7.59
2024-05-02T10:15:00Z,7.64
2024-05-02T10:30:00Z,7.69
2024-05-02T10:45:00Z,7.72
2024-05-02T11:00:00Z,7.76
2024-05-02T11:15:00Z,7.80
2024-05-02T11:30:00Z,7.83
2024-05-02T11:45:00Z,7.86
2024-05-02T12:00:00Z,7.89
2024-05-02T12:15:00Z,7.91
2024-05-02T12:30:00Z,7.94
2024-05-02T12:45:00Z,7.96
2024-05-02T13:00:00Z,7.98
2024-05-02T13:15:00Z,8.01
2024-05-02T13:30:00Z,8.02
2024-05-02T13:45:00Z,8.04
2024-05-02T14:00:00Z,8.06
2024-05-02T14:15:00Z,8.07
2024-05-02T14:30:00Z,8.08
2024-05-02T14:45:00Z,8.09
2024-05-02T15:00:00Z,8.10
2024-05-02T15:15:00Z,8.11
2024-05-02T15:30:00Z,8.12
2024-05-02T15:45:00Z,8.12
2024-05-02T16:00:00Z,8.13
2024-05-02T16:15:00Z,8.13
2024-05-02T16:30:00Z,8.14
2024-05-02T16:45:00Z,8.14
2024-05-02T17:00:00Z,8.15
2024-05-02T17:15:00Z,8.15
2024-05-02T17:30:00Z,8.16
2024-05-02T17:45:00Z,8.16
2024-05-02T18:00:00Z,8.16
2024-05-02T18:15:00Z,8.17
2024-05-02T18:30:00Z,8.17
2024-05-02T18:45:00Z,8.17
2024-05-02T19:00:00Z,8.18
2024-05-02T19:15:00Z,8.18
2024-05-02T19:30:00Z,8.18
2024-05-02T19:45:00Z,8.18
2024-05-02T20:00:00Z,8.19
2024-05-02T20:15:00Z,8.19
2024-05-02T20:30:00Z,8.19
2024-05-02T20:45:00Z,8.19
2024-05-02T21:00:00Z,8.19
2024-05-02T21:15:00Z,8.20
2024-05-02T21:30:00Z,8.20
2024-05-02T21:45:00Z,8.20
2024-05-02T22:00:00Z,8.20
2024-05-02T22:15:00Z,8.20
2024-05-02T22:30:00Z,8.21
2024-05-02T22:45:00Z,8.21
2024-05-02T23:00:00Z,8.21
2024-05-02T23:15:00Z,8.21
2024-05-02T23:30:00Z,8.21
2024-05-02T23:45:00Z,8.22
2024-05-03T00:00:00Z,8.22
2024-05-03T00:15:00Z,8.22
2024-05-03T00:30:00Z,8.22
2024-05-03T00:45:00Z,8.22
2024-05-03T01:00:00Z,8.22
2024-05-03T01:15:00Z,8.22
2024-05-03T01:30:00Z,8.23
2024-05-03T01:45:00Z,8.23
2024-05-03T02:00:00Z,8.23
2024-05-03T02:15:00Z,8.23
2024-05-03T02:30:00Z,8.24
2024-05-03T02:45:00Z,8.24
2024-05-03T03:00:00Z,8.24
2024-05-03T03:15:00Z,8.24
2024-05-03T03:30:00Z,8.24
2024-05-03T03:45:00Z,8.24
2024-05-03T04:00:00Z,8.24
2024-05-03T04:15:00Z,8.25
2024-05-03T04:30:00Z,8.25
2024-05-03T04:45:00Z,8.25
2024-05-03T05:00:00Z,8.25
2024-05-03T05:15:00Z,8.25
2024-05-03T05:30:00Z,8.26
2024-05-03T05:45:00Z,8.26
2024-05-03T06:00:00Z,8.26
2024-05-03T06:15:00Z,8.26
2024-05-03T06:30:00Z,8.26
2024-05-03T06:45:00Z,8.26
2024-05-03T07:00:00Z,8.26
2024-05-03T07:15:00Z,8.26
2024-05-03T07:30:00Z,8.27
2024-05-03T07:45:00Z,8.27
2024-05-03T08:00:00Z,8.27
2024-05-03T08:15:00Z,8.27
2024-05-03T08:30:00Z,8.27
2024-05-03T08:45:00Z,8.27
2024-05-03T09:00:00Z,8.27
2024-05-03T09:15:00Z,8.27
2024-05-03T09:30:00Z,8.28
2024-05-03T09:45:00Z,8.28
2024-05-03T10:00:00Z,8.28